User: anonymous   Login
Location: Gleizolles
(44.4833°N, 6.7667°E)
Time: 07:43:27
(UTC+00:00)
Language:

STRAND 1 - Orbit

View from above orbital plane
View from above orbital plane
View from above satellite
View from above satellite

Ground track
Ground track

The orbit data is extracted from the following two-line orbital elements,

1 39090U 13009E   21130.54959249 -.00000029  00000-0  49044-5 0  9996
2 39090  98.4313 333.6425 0009874  37.5265 322.6608 14.35172949429606
Epoch (UTC): 10 May 2021 13:11:24
Eccentricity: 0.0009874
inclination: 98.4313°
perigee height: 767 km
apogee height: 781 km
right ascension of ascending node: 333.6425°
argument of perigee: 37.5265°
revolutions per day: 14.35172949
mean anomaly at epoch: 322.6608°
orbit number at epoch: 42960

The dashed part of the orbit path shows where the satellite is in the earth's shadow,  

DLR